Location: La Silve
(44.2414°N, 5.8889°E)
Time: 16:52:39
(UTC+00:00)

YAOGAN 1 - Visible Passes

Search period start: 16 April 2021 00:00
Search period end: 26 April 2021 00:00
Orbit: 618 x 620 km, 97.9° (Epoch: 16 April)

Date Brightness Start Highest point End Pass type
(mag) Time Alt. Az. Time Alt. Az. Time Alt. Az.
16 Apr 4.3 18:57:43 10° SSW 19:01:41 35° W 19:05:41 10° NNW visible
17 Apr 5.0 19:15:22 10° SSW 19:18:51 24° W 19:22:23 10° NW visible
18 Apr 5.4 19:33:23 10° SW 19:36:04 16° W 19:38:46 10° NW visible
19 Apr 5.9 19:52:29 10° W 19:53:20 10° W 19:54:10 10° WNW visible
22 Apr 4.6 19:04:12 10° SSW 19:08:01 30° W 19:11:52 10° NNW visible
23 Apr 5.2 19:21:56 10° SW 19:25:12 21° W 19:28:28 10° NW visible
24 Apr 5.5 19:40:10 10° WSW 19:42:25 14° W 19:44:41 10° WNW visible
